User: anonymous   Login
Location: Charlottesville
(38.0290°N, 78.4770°W)
Time: 00:21:32
(UTC-05:00)
Language:

Hubble Space Telescope - Orbit

View from above orbital plane
View from above orbital plane
View from above satellite
View from above satellite

Ground track
Ground track

The orbit data is extracted from the following two-line orbital elements,

1 20580U 90037B   17346.22209911 +.00000476 +00000-0 +18277-4 0  9997
2 20580 028.4697 270.9622 0002478 288.9063 221.9446 15.08942276317203
Epoch (UTC): 12 December 2017 05:19:49
Eccentricity: 0.0002478
inclination: 28.4697°
perigee height: 538 km
apogee height: 541 km
right ascension of ascending node: 270.9622°
argument of perigee: 288.9063°
revolutions per day: 15.08942276
mean anomaly at epoch: 221.9446°
orbit number at epoch: 31720

The dashed part of the orbit path shows where the satellite is in the earth's shadow,  

DLR